Location: Argonnex
(45.9500°N, 6.1333°E)
Time: 05:10:17
(UTC+00:00)

Cosmos 2266 Rocket - Pass Details

Date: 12 August 2024
Orbit: 933 x 1008 km, 82.9° (Epoch: 08 September)

Event Time Altitude Azimuth Distance (km) Brightness Sun altitude
Rises 00:41:51 0° 354° (N) 3,601 8.0 -27.6°
Reaches altitude 10° 00:44:23 10° 358° (N) 2,653 7.2 -27.5°
Maximum altitude 00:50:21 59° 78° (ENE) 1,079 4.3 -27.2°
Enters shadow 00:51:53 46° 129° (SE) 1,248 4.3 -27.1°
